Regional Weather Roundup
Issued by NWS Newport/Morehead, NC

Current Version | Previous Version | Graphics & Text | Print | Product List | Glossary Off
Versions: 1 2 3 4 5 6 7 8 9 10 11 12 13 14 15 16 17 18 19 20 21 22 23 24 25 26 27 28 29 30 31 32 33 34 35 36 37 38 39 40 41 42 43 44 45 46 47 48 49 50

000
ASUS42 KMHX 020110
RWRMHX
WEATHER ROUNDUP FOR EASTERN NORTH CAROLINA
NATIONAL WEATHER SERVICE NEWPORT/MOREHEAD CITY NC
900 PM EDT MON SEP 01 2014

NOTE: "FAIR" INDICATES FEW OR NO CLOUDS BELOW 12,000 FEET
WITH NO SIGNIFICANT WEATHER AND/OR OBSTRUCTIONS TO VISIBILITY

NCZ015>017-031-032-045>047-102-103-020200-
NORTH COAST

CITY           SKY/WX    TMP DP  RH WIND       PRES   REMARKS
EDENTON        MOCLDY    83  77  82 S13       30.03R
ELIZABETH CITY MOCLDY    83  76  79 S10       30.02S
KITTY HAWK     MOCLDY    81  76  84 SW7       30.03S
MANTEO         MOCLDY    82  76  84 S13       30.05R

$$

NCZ045>047-081-094-103-104-020200-
CENTRAL COAST

CITY           SKY/WX    TMP DP  RH WIND       PRES   REMARKS
FRISCO         PTCLDY    80  78  94 SW12      30.07R
SWANQUARTER      N/A     82 N/A N/A SW20      30.00F

$$

NCZ095-097-098-100-101-020200-
SOUTHERN COAST

CITY           SKY/WX    TMP DP  RH WIND       PRES   REMARKS
BEAUFORT       MOCLDY    82  76  81 SW12      30.07S
CEDAR ISLAND     N/A     81 N/A N/A S7G13     30.09S
JACKSONVILLE   CLOUDY    80  75  84 S5        30.06S
NEWPORT        NOT AVBL
PINEY ISLAND   MOCLDY    81  77  88 SW6       30.07R
WILMINGTON     MOCLDY    81  75  82 SW6       30.07R


$$

NCZ011>013-027>030-043-044-078>080-089-090>093-098-020200-
COASTAL PLAIN

CITY           SKY/WX    TMP DP  RH WIND       PRES   REMARKS
AHOSKIE        PTCLDY    78  75  92 CALM      30.03S
CLINTON        MOCLDY    83  77  82 S3        30.06R
ELIZABETHTOWN  MOCLDY    82  75  78 S5        30.06S
GOLDSBORO      MOCLDY    83  79  87 S6        30.03R
GREENVILLE     MOCLDY    82  79  89 S14       30.06R
HAVELOCK       MOCLDY    81  76  84 SW8       30.08S
KENANSVILLE    MOCLDY    80  71  75 CALM      30.07R
KINSTON        MOCLDY    82  75  78 S8        30.06R
NEW BERN       MOCLDY    82  76  81 S6        30.07S
RICHLANDS      MOCLDY    79  73  83 S7        30.07R
ROANOKE RAPIDS NOT AVBL
ROCKY MOUNT    MOCLDY    79  74  84 CALM      30.04R
WASHINGTON     CLOUDY    82  76  83 S6        30.06R
WHITEVILLE     PTCLDY    81  75  83 S5        30.06S

$$

AMZ130-135-150-152-154-156-158-170-250-252-270-ANZ085-086-088-633-658-670-020200-
MARINE OBSERVATIONS

STATION/POSITION TIME  TEMP    WIND        PRES    WAVE   SWELL
                       AIR SEA DIR/SP/G            HT/PER HT/PER
                 (UTC) (F)     (DEG/KT/KT) (MB)    (FT/S) (FT/S)
CHESAPEAKE LIGHT 0000   81     190/ 20/ 21 1016.0
BUOY 44014       0100   80 78  200/ 17/ 21 1015.8    3/ 9   2/ 9
DUCK             0100   82 75  190/ 11/ 17 1016.0
2E DUCK          0000                        N/A     2/11   2/11
OREGON INLET     0100   82 85  200/ 18/ 21 1017.4
BUOY 44095       0100      80                N/A     3/11   2/11
20E OREGON INLET NOT AVBL
HATTERAS CG      0100   81 84  220/ 10/ 14 1018.7
DIAMOND BUOY     0100   82     210/ 17/ 19 1018.0    3/ 8   2/ 8
CAPE LOOKOUT     0100   81     220/  8/ 10 1018.4
BEAUFORT LAB     0100   82 84  220/  5/  9 1017.8
30 SE NEW RIVER  0000   83 82  220/ 12/ 14 1018.6
5 SE WRIGHTSVILL 0000   79 83  230/  8/ 10   N/A
BUOY 41002       0039   82 84  190/  8/ 10 1020.6    3/11   3/11
BUOY 41004       0100   83 83  180/  6/  6 1018.5    2/ 8   2/ 8

$$


USA.gov is the U.S. government's official web portal to all federal, state and local government web resources and services.